Tracking 35035 objects as of 16-Aug-2026
HD Live streaming from Space Station
objects crossing your sky now

IRIDIUM 82


IRIDIUM 82 is no longer on orbit
IRIDIUM 82 is classified as:


NORAD ID: 25467
Int'l Code: 1998-051A
Launch date: September 8, 1998
Source: United States (US)
Launch site: AIR FORCE WESTERN TEST RANGE (AFWTR)
Decay date: 2026-08-08
Your satellite tracking list
Your tracking list is empty




NASA's NSSDC Master Catalog

Two Line Element Set (TLE):
1 25467U 98051A   26220.21544713  .13012022 -14656-5  19105-3 0  9994
2 25467  86.3199 257.0935 0010526 248.8702 111.1485 16.48291998488736
Source of the keplerian elements: AFSPC